When you browse on this site, cookies collect data to enhance your experience and personalize the content and advertising you see.
Visit our Privacy Policy to learn more. By continuing to use the site, you agree to this use of cookies and data.
  • In Österreich
  • Länderverzeichnis
  • Für 7 Tage
  • Wassertemperatur
  • Wetterkarte
  • News
  • Widgets
  • user-avatar
    Anmelden

    Stündliche Wetter Lambaréné

    Heute, 10 April, Freitag

    Zeit Temperatur Niederschläge Wind Luftdruck Luftfeuchtigkeit
    00:00 +23°C° 0 mm 0 m/S 752 mmHg 93%
    01:00 +23°C° 0 mm 0 m/S 752 mmHg 93%
    02:00 +23°C° 0 mm 0 m/S 752 mmHg 94%
    03:00 +23°C° 0 mm 0 m/S 751 mmHg 95%
    04:00 +22°C° 0 mm 0 m/S 751 mmHg 95%
    05:00 +23°C° 0 mm 0 m/S 752 mmHg 94%
    06:00 +23°C° 0 mm 0 m/S 752 mmHg 93%
    07:00 +24°C° 0 mm 0 m/S 753 mmHg 92%
    08:00 +25°C° 0 mm 0 m/S 753 mmHg 86%
    09:00 +27°C° 0 mm 0 m/S 753 mmHg 80%
    10:00 +28°C° 0 mm 0 m/S 753 mmHg 74%
    11:00 +32°C° 0 mm 1 m/S 753 mmHg 68%
    12:00 +33°C° 0 mm 1 m/S 753 mmHg 62%
    13:00 +35°C° 0 mm 1 m/S 752 mmHg 55%
    14:00 +34°C° 0.1 mm 1 m/S 751 mmHg 60%
    15:00 +33°C° 0.1 mm 1 m/S 751 mmHg 65%
    16:00 +32°C° 0.1 mm 1 m/S 750 mmHg 69%
    17:00 +31°C° 0.4 mm 1 m/S 750 mmHg 76%
    18:00 +29°C° 0.4 mm 1 m/S 751 mmHg 83%
    19:00 +28°C° 0.4 mm 2 m/S 752 mmHg 89%
    20:00 +28°C° 1.8 mm 2 m/S 752 mmHg 92%
    21:00 +27°C° 1.8 mm 2 m/S 752 mmHg 94%
    22:00 +27°C° 1.8 mm 2 m/S 753 mmHg 96%
    23:00 +27°C° 0.4 mm 2 m/S 752 mmHg 97%

    Morgen, 11 April, Samstag

    Zeit Temperatur Niederschläge Wind Luftdruck Luftfeuchtigkeit
    00:00 +26°C° 0.4 mm 1 m/S 752 mmHg 97%
    01:00 +26°C° 0.4 mm 1 m/S 752 mmHg 97%
    02:00 +26°C° 0.1 mm 1 m/S 752 mmHg 97%
    03:00 +26°C° 0.1 mm 1 m/S 752 mmHg 97%
    04:00 +26°C° 0.1 mm 1 m/S 751 mmHg 98%
    05:00 +26°C° 0 mm 1 m/S 752 mmHg 97%
    06:00 +24°C° 0 mm 0 m/S 753 mmHg 97%
    07:00 +24°C° 0 mm 0 m/S 753 mmHg 97%
    08:00 +26°C° 0.2 mm 0 m/S 753 mmHg 92%
    09:00 +29°C° 0.2 mm 1 m/S 754 mmHg 87%
    10:00 +30°C° 0.2 mm 1 m/S 754 mmHg 82%
    11:00 +31°C° 1.6 mm 1 m/S 753 mmHg 82%
    12:00 +31°C° 1.6 mm 2 m/S 753 mmHg 82%
    13:00 +31°C° 1.6 mm 2 m/S 752 mmHg 81%
    14:00 +30°C° 2.7 mm 2 m/S 751 mmHg 85%
    15:00 +29°C° 2.7 mm 2 m/S 751 mmHg 90%
    16:00 +27°C° 2.7 mm 2 m/S 750 mmHg 94%
    17:00 +27°C° 0.6 mm 1 m/S 751 mmHg 95%
    18:00 +27°C° 0.6 mm 1 m/S 752 mmHg 96%
    19:00 +26°C° 0.6 mm 1 m/S 752 mmHg 96%
    20:00 +26°C° 0 mm 1 m/S 753 mmHg 96%
    21:00 +24°C° 0 mm 0 m/S 753 mmHg 96%
    22:00 +24°C° 0 mm 0 m/S 754 mmHg 96%
    23:00 +23°C° 0 mm 0 m/S 753 mmHg 96%

    übermorgen, 12 April, Sonntag

    Zeit Temperatur Niederschläge Wind Luftdruck Luftfeuchtigkeit
    00:00 +23°C° 0 mm 0 m/S 753 mmHg 97%
    01:00 +23°C° 0 mm 0 m/S 753 mmHg 97%
    02:00 +23°C° 0 mm 0 m/S 753 mmHg 97%
    03:00 +23°C° 0 mm 0 m/S 753 mmHg 97%
    04:00 +23°C° 0 mm 0 m/S 753 mmHg 97%
    05:00 +23°C° 0.1 mm 0 m/S 753 mmHg 97%
    06:00 +23°C° 0.1 mm 0 m/S 753 mmHg 97%
    07:00 +23°C° 0.1 mm 0 m/S 754 mmHg 97%
    08:00 +24°C° 0.1 mm 0 m/S 754 mmHg 95%
    09:00 +27°C° 0.1 mm 1 m/S 754 mmHg 94%
    10:00 +27°C° 0.1 mm 1 m/S 755 mmHg 93%
    11:00 +29°C° 0.1 mm 1 m/S 754 mmHg 82%
    12:00 +31°C° 0.1 mm 1 m/S 753 mmHg 71%
    13:00 +33°C° 0.1 mm 1 m/S 753 mmHg 61%
    14:00 +32°C° 0.6 mm 1 m/S 752 mmHg 69%
    15:00 +30°C° 0.6 mm 1 m/S 752 mmHg 76%
    16:00 +29°C° 0.6 mm 1 m/S 751 mmHg 84%
    17:00 +28°C° 0.1 mm 1 m/S 751 mmHg 87%
    18:00 +28°C° 0.1 mm 1 m/S 752 mmHg 90%
    19:00 +27°C° 0.1 mm 1 m/S 752 mmHg 93%
    20:00 +27°C° 0 mm 1 m/S 753 mmHg 94%
    21:00 +26°C° 0 mm 1 m/S 753 mmHg 95%
    22:00 +26°C° 0 mm 1 m/S 754 mmHg 95%
    23:00 +26°C° 0 mm 1 m/S 753 mmHg 95%

    13 April, Montag

    Zeit Temperatur Niederschläge Wind Luftdruck Luftfeuchtigkeit
    00:00 +24°C° 0 mm 0 m/S 753 mmHg 95%
    01:00 +24°C° 0 mm 0 m/S 753 mmHg 95%
    02:00 +24°C° 0 mm 0 m/S 753 mmHg 95%
    03:00 +23°C° 0 mm 0 m/S 753 mmHg 96%
    04:00 +23°C° 0 mm 0 m/S 752 mmHg 96%
    05:00 +23°C° 0 mm 0 m/S 753 mmHg 95%
    06:00 +24°C° 0 mm 0 m/S 753 mmHg 95%
    07:00 +26°C° 0 mm 1 m/S 753 mmHg 95%
    08:00 +28°C° 0 mm 1 m/S 754 mmHg 85%
    09:00 +29°C° 0 mm 0 m/S 754 mmHg 75%
    10:00 +31°C° 0 mm 0 m/S 754 mmHg 65%
    11:00 +32°C° 0 mm 0 m/S 753 mmHg 61%
    12:00 +34°C° 0 mm 1 m/S 753 mmHg 57%
    13:00 +35°C° 0 mm 1 m/S 752 mmHg 54%
    14:00 +35°C° 0.2 mm 1 m/S 751 mmHg 57%
    15:00 +34°C° 0.2 mm 1 m/S 751 mmHg 60%
    16:00 +34°C° 0.2 mm 1 m/S 750 mmHg 63%
    17:00 +32°C° 0.1 mm 1 m/S 750 mmHg 70%
    18:00 +30°C° 0.1 mm 1 m/S 751 mmHg 77%
    19:00 +28°C° 0.1 mm 1 m/S 751 mmHg 84%
    20:00 +28°C° 0 mm 1 m/S 751 mmHg 86%
    21:00 +27°C° 0 mm 1 m/S 752 mmHg 88%
    22:00 +26°C° 0 mm 1 m/S 752 mmHg 90%
    23:00 +26°C° 0 mm 1 m/S 752 mmHg 91%

    14 April, Dienstag

    Zeit Temperatur Niederschläge Wind Luftdruck Luftfeuchtigkeit
    00:00 +26°C° 0 mm 1 m/S 752 mmHg 93%
    01:00 +24°C° 0 mm 0 m/S 752 mmHg 94%
    02:00 +24°C° 0 mm 0 m/S 752 mmHg 94%
    03:00 +24°C° 0 mm 0 m/S 752 mmHg 95%
    04:00 +25°C° 0 mm 1 m/S 751 mmHg 95%
    05:00 +26°C° 0 mm 1 m/S 752 mmHg 95%
    06:00 +26°C° 0 mm 1 m/S 752 mmHg 94%
    07:00 +26°C° 0 mm 1 m/S 752 mmHg 93%
    08:00 +28°C° 0 mm 1 m/S 752 mmHg 82%
    09:00 +31°C° 0 mm 1 m/S 753 mmHg 72%
    10:00 +33°C° 0 mm 1 m/S 753 mmHg 61%
    11:00 +34°C° 0 mm 1 m/S 752 mmHg 55%
    12:00 +36°C° 0 mm 1 m/S 752 mmHg 50%
    13:00 +37°C° 0 mm 1 m/S 751 mmHg 45%
    14:00 +37°C° 0 mm 1 m/S 750 mmHg 46%
    15:00 +36°C° 0 mm 1 m/S 750 mmHg 47%
    16:00 +36°C° 0 mm 1 m/S 749 mmHg 48%
    17:00 +34°C° 0.2 mm 1 m/S 750 mmHg 57%
    18:00 +32°C° 0.2 mm 1 m/S 750 mmHg 65%
    19:00 +30°C° 0.2 mm 2 m/S 750 mmHg 73%
    20:00 +29°C° 1.1 mm 2 m/S 751 mmHg 80%
    21:00 +28°C° 1.1 mm 2 m/S 751 mmHg 86%
    22:00 +27°C° 1.1 mm 2 m/S 752 mmHg 93%
    23:00 +27°C° 0.4 mm 2 m/S 752 mmHg 94%

    15 April, Mittwoch

    Zeit Temperatur Niederschläge Wind Luftdruck Luftfeuchtigkeit
    00:00 +27°C° 0.4 mm 1 m/S 752 mmHg 95%
    01:00 +27°C° 0.4 mm 1 m/S 751 mmHg 96%
    02:00 +27°C° 0 mm 1 m/S 751 mmHg 97%
    03:00 +27°C° 0 mm 1 m/S 751 mmHg 97%
    04:00 +24°C° 0 mm 0 m/S 751 mmHg 98%
    05:00 +25°C° 0 mm 0 m/S 751 mmHg 97%
    06:00 +25°C° 0 mm 0 m/S 751 mmHg 97%
    07:00 +25°C° 0 mm 0 m/S 752 mmHg 96%
    08:00 +27°C° 0.1 mm 0 m/S 752 mmHg 89%
    09:00 +28°C° 0.1 mm 0 m/S 753 mmHg 81%
    10:00 +32°C° 0.1 mm 1 m/S 753 mmHg 74%
    11:00 +34°C° 0.3 mm 1 m/S 752 mmHg 69%
    12:00 +33°C° 0.3 mm 0 m/S 751 mmHg 63%
    13:00 +34°C° 0.3 mm 0 m/S 750 mmHg 58%
    14:00 +35°C° 1 mm 1 m/S 750 mmHg 63%
    15:00 +34°C° 1 mm 1 m/S 749 mmHg 69%
    16:00 +33°C° 1 mm 1 m/S 749 mmHg 74%
    17:00 +31°C° 1 mm 1 m/S 749 mmHg 81%
    18:00 +30°C° 1 mm 1 m/S 750 mmHg 87%
    19:00 +28°C° 1 mm 2 m/S 750 mmHg 94%
    20:00 +28°C° 1.3 mm 2 m/S 751 mmHg 95%
    21:00 +27°C° 1.3 mm 2 m/S 751 mmHg 95%
    22:00 +27°C° 1.3 mm 2 m/S 751 mmHg 96%
    23:00 +27°C° 1.1 mm 2 m/S 751 mmHg 96%
    Mehr zeigen